H1 CPF 2 NER 2022 12 20 9 354 01 glonass107 H2 0706501 9107 32393 2022 12 20 0 0 0 2022 12 23 23 45 0 900 1 1 0 0 0 1 H9 10 0 59933 0.00000 0 -3902379.797 14462820.292 -20662636.713 10 0 59933 900.00000 0 -5859114.256 15932535.284 -19054991.577 10 0 59933 1800.00000 0 -7534224.676 17400080.094 -17077774.776 10 0 59933 2700.00000 0 -8906621.568 18804775.764 -14769248.788 10 0 59933 3600.00000 0 -9967816.677 20084926.557 -12174118.395 10 0 59933 4500.00000 0 -10722019.022 21180418.720 -9342673.535 10 0 59933 5400.00000 0 -11185701.551 22035275.666 -6329821.661 10 0 59933 6300.00000 0 -11386656.796 22600062.188 -3194027.592 10 0 59933 7200.00000 0 -11362581.427 22834036.123 3818.926 10 0 59933 8100.00000 0 -11159249.537 22706956.049 3201586.085 10 0 59933 9000.00000 0 -10828352.109 22200467.766 6337110.146 10 0 59933 9900.00000 0 -10425094.383 21309009.798 9349408.684 10 0 59933 10800.00000 0 -10005653.369 20040198.405 12179872.760 10 0 59933 11700.00000 0 -9624603.875 18414674.459 14773414.051 10 0 59933 12600.00000 0 -9332422.829 16465417.435 17079543.800 10 0 59933 13500.00000 0 -9173178.476 14236554.184 19053361.955 10 0 59933 14400.00000 0 -9182503.112 11781711.626 20656436.746 10 0 59933 15300.00000 0 -9385936.024 9161981.715 21857557.155 10 0 59933 16200.00000 0 -9797707.435 6443583.360 22633343.495 10 0 59933 17100.00000 0 -10420015.590 3695318.565 22968704.156 10 0 59933 18000.00000 0 -11242828.079 985928.817 22857129.641 10 0 59933 18900.00000 0 -12244216.287 -1618538.387 22300818.311 10 0 59933 19800.00000 0 -13391209.288 -4057243.460 21310631.491 10 0 59933 20700.00000 0 -14641131.419 -6276844.702 19905878.957 10 0 59933 21600.00000 0 -15943367.345 -8233469.607 18113939.091 10 0 59933 22500.00000 0 -17241480.297 -9894286.181 15969721.238 10 0 59933 23400.00000 0 -18475594.113 -11238609.718 13514980.915 10 0 59933 24300.00000 0 -19584938.573 -12258500.250 10797501.435 10 0 59933 25200.00000 0 -20510450.517 -12958827.255 7870158.203 10 0 59933 26100.00000 0 -21197320.857 -13356800.684 4789884.342 10 0 59933 27000.00000 0 -21597379.911 -13480989.919 1616558.313 10 0 59933 27900.00000 0 -21671220.347 -13369873.804 -1588164.335 10 0 59933 28800.00000 0 -21389968.249 -13069984.575 -4762051.693 10 0 59933 29700.00000 0 -20736627.750 -12633725.484 -7843504.949 10 0 59933 30600.00000 0 -19706942.772 -12116955.421 -10772752.787 10 0 59933 31500.00000 0 -18309739.861 -11576443.316 -13493007.354 10 0 59933 32400.00000 0 -16566737.841 -11067300.179 -15951559.621 10 0 59933 33300.00000 0 -14511832.317 -10640497.193 -18100793.398 10 0 59933 34200.00000 0 -12189884.862 -10340574.201 -19899099.016 10 0 59933 35100.00000 0 -9655067.037 -10203634.656 -21311669.991 10 0 59933 36000.00000 0 -6968827.612 -10255710.809 -22311168.298 10 0 59933 36900.00000 0 -4197566.632 -10511567.342 -22878246.382 10 0 59933 37800.00000 0 -1410111.765 -10973993.347 -23001916.755 10 0 59933 38700.00000 0 1324899.817 -11633612.274 -22679762.666 10 0 59933 39600.00000 0 3941626.870 -12469218.085 -21917986.075 10 0 59933 40500.00000 0 6379510.377 -13448624.124 -20731291.969 10 0 59933 41400.00000 0 8585539.081 -14529990.040 -19142610.760 10 0 59933 42300.00000 0 10516201.383 -15663572.190 -17182663.412 10 0 59933 43200.00000 0 12139043.602 -16793825.312 -14889376.673 10 0 59933 44100.00000 0 13433770.512 -17861768.323 -12307158.545 10 0 59933 45000.00000 0 14392842.727 -18807515.739 -9486046.980 10 0 59933 45900.00000 0 15021546.357 -19572868.842 -6480747.230 10 0 59933 46800.00000 0 15337532.186 -20103857.661 -3349575.780 10 0 59933 47700.00000 0 15369843.833 -20353126.409 -153330.921 10 0 59933 48600.00000 0 15157475.921 -20282061.114 3045888.193 10 0 59933 49500.00000 0 14747523.245 -19862568.634 6185890.904 10 0 59933 50400.00000 0 14192999.348 -19078430.691 9205608.747 10 0 59933 51300.00000 0 13550417.158 -17926174.324 12046289.226 10 0 59933 52200.00000 0 12877234.565 -16415420.477 14652645.730 10 0 59933 53100.00000 0 12229273.649 -14568694.591 16973940.351 10 0 59933 54000.00000 0 11658223.474 -12420705.710 18964977.916 10 0 59933 54900.00000 0 11209332.776 -10017123.174 20586991.366 10 0 59933 55800.00000 0 10919390.757 -7412901.208 21808400.816 10 0 59933 56700.00000 0 10815081.898 -4670220.751 22605431.378 10 0 59933 57600.00000 0 10911784.741 -1856133.881 22962577.650 10 0 59933 58500.00000 0 11212865.668 959991.182 22872905.863 10 0 59933 59400.00000 0 11709497.713 3709118.388 22338187.934 10 0 59933 60300.00000 0 12381012.114 6325175.485 21368864.901 10 0 59933 61200.00000 0 13195767.765 8747559.658 19983840.628 10 0 59933 62100.00000 0 14112501.768 10923413.314 18210109.890 10 0 59933 63000.00000 0 15082103.912 12809575.888 16082228.210 10 0 59933 63900.00000 0 16049739.894 14374131.020 13641633.963 10 0 59933 64800.00000 0 16957233.355 15597485.689 10935836.176 10 0 59933 65700.00000 0 17745605.774 16472937.553 8017484.131 10 0 59933 66600.00000 0 18357666.589 17006708.255 4943337.364 10 0 59933 67500.00000 0 18740543.813 17217443.083 1773156.598 10 0 59933 68400.00000 0 18848048.007 17135199.824 -1431462.268 10 0 59933 69300.00000 0 18642769.618 16799971.082 -4608287.834 10 0 59933 70200.00000 0 18097821.084 16259803.940 -7695662.732 10 0 59933 71100.00000 0 17198150.275 15568597.560 -10633699.277 10 0 59933 72000.00000 0 15941369.984 14783672.556 -13365437.814 10 0 59933 72900.00000 0 14338068.618 13963215.240 -15837945.527 10 0 59933 73800.00000 0 12411588.942 13163704.606 -18003334.892 10 0 59933 74700.00000 0 10197283.956 12437430.235 -19819682.681 10 0 59933 75600.00000 0 7741280.535 11830205.061 -21251832.739 10 0 59933 76500.00000 0 5098801.639 11379368.448 -22272067.997 10 0 59933 77400.00000 0 2332116.053 11112162.674 -22860639.751 10 0 59933 78300.00000 0 -491800.431 11044550.249 -23006144.901 10 0 59933 79200.00000 0 -3303796.758 11180521.131 -22705744.503 10 0 59933 80100.00000 0 -6035167.766 11511918.641 -21965219.752 10 0 59933 81000.00000 0 -8620257.700 12018791.444 -20798864.290 10 0 59933 81900.00000 0 -10998939.673 12670257.248 -19229214.452 10 0 59933 82800.00000 0 -13118869.453 13425842.677 -17286621.976 10 0 59933 83700.00000 0 -14937421.061 14237243.926 -15008676.378 10 0 59933 84600.00000 0 -16423224.552 15050435.160 -12439487.037 10 0 59933 85500.00000 0 -17557242.278 15808036.775 -9628837.783 10 0 59934 0.00000 0 -18333339.018 16451844.408 -6631229.606 10 0 59934 900.00000 0 -18758322.552 16925412.657 -3504827.607 10 0 59934 1800.00000 0 -18851451.973 17176583.595 -310336.287 10 0 59934 2700.00000 0 -18643435.806 17159853.945 2890180.517 10 0 59934 3600.00000 0 -18174961.012 16838479.118 6034507.951 10 0 59934 4500.00000 0 -17494815.509 16186224.366 9061494.235 10 0 59934 5400.00000 0 -16657683.647 15188687.546 11912246.041 10 0 59934 6300.00000 0 -15721708.167 13844136.036 14531281.142 10 0 59934 7200.00000 0 -14745922.148 12163820.857 16867615.071 10 0 59934 8100.00000 0 -13787660.056 10171753.184 18875759.978 10 0 59934 9000.00000 0 -12900057.812 7903951.110 20516615.759 10 0 59934 9900.00000 0 -12129747.996 5407187.059 21758235.646 10 0 59934 10800.00000 0 -11514847.885 2737287.189 22576451.221 10 0 59934 11700.00000 0 -11083325.475 -42946.952 22955344.610 10 0 59934 12600.00000 0 -10851812.521 -2866108.319 22887558.694 10 0 59934 13500.00000 0 -10824914.608 -5662747.502 22374439.428 10 0 59934 14400.00000 0 -10995047.091 -8364022.658 21426007.597 10 0 59934 15300.00000 0 -11342803.532 -10904326.164 20060760.712 10 0 59934 16200.00000 0 -11837840.604 -13223778.944 18305309.023 10 0 59934 17100.00000 0 -12440241.620 -15270489.063 16193852.853 10 0 59934 18000.00000 0 -13102300.525 -17002480.922 13767511.629 10 0 59934 18900.00000 0 -13770650.401 -18389215.428 11073517.904 10 0 59934 19800.00000 0 -14388645.923 -19412638.661 8164292.328 10 0 59934 20700.00000 0 -14898898.453 -20067716.381 5096418.093 10 0 59934 21600.00000 0 -15245856.077 -20362433.531 1929535.242 10 0 59934 22500.00000 0 -15378318.992 -20317260.339 -1274823.066 10 0 59934 23400.00000 0 -15251783.606 -19964109.124 -4454429.108 10 0 59934 24300.00000 0 -14830516.045 -19344827.290 -7547570.194 10 0 59934 25200.00000 0 -14089267.381 -18509291.363 -10494245.516 10 0 59934 26100.00000 0 -13014558.208 -17513183.423 -13237326.823 10 0 59934 27000.00000 0 -11605478.390 -16415544.336 -15723660.602 10 0 59934 27900.00000 0 -9873968.211 -15276207.073 -17905090.886 10 0 59934 28800.00000 0 -7844568.901 -14153218.020 -19739383.493 10 0 59934 29700.00000 0 -5553652.474 -13100354.171 -21191034.806 10 0 59934 30600.00000 0 -3048162.273 -12164839.705 -22231950.457 10 0 59934 31500.00000 0 -383915.794 -11385356.813 -22841981.819 10 0 59934 32400.00000 0 2376460.944 -10790433.156 -23009310.859 10 0 59934 33300.00000 0 5165883.121 -10397272.611 -22730676.600 10 0 59934 34200.00000 0 7915344.989 -10211077.586 -22011439.142 10 0 59934 35100.00000 0 10556542.272 -10224890.829 -20865480.000 10 0 59934 36000.00000 0 13024471.936 -10419963.287 -19314940.249 10 0 59934 36900.00000 0 15259902.735 -10766632.755 -17389800.810 10 0 59934 37800.00000 0 17211615.113 -11225676.935 -15127312.005 10 0 59934 38700.00000 0 18838318.132 -11750084.609 -12571282.235 10 0 59934 39600.00000 0 20110164.032 -12287171.088 -9771238.480 10 0 59934 40500.00000 0 21009797.454 -12780949.339 -6781473.843 10 0 59934 41400.00000 0 21532895.477 -13174657.097 -3659999.774 10 0 59934 42300.00000 0 21688175.637 -13413333.272 -467422.913 10 0 59934 43200.00000 0 21496871.427 -13446334.395 2734231.833 10 0 59934 44100.00000 0 20991697.150 -13229683.963 5882728.960 10 0 59934 45000.00000 0 20215345.632 -12728154.237 8916836.741 10 0 59934 45900.00000 0 19218582.174 -11916991.068 11777524.089 10 0 59934 46800.00000 0 18058015.356 -10783207.270 14409115.868 10 0 59934 47700.00000 0 16793639.080 -9326388.245 16760383.330 10 0 59934 48600.00000 0 15486249.992 -7558974.175 18785547.800 10 0 59934 49500.00000 0 14194849.656 -5506005.204 20445177.549 10 0 59934 50400.00000 0 12974141.460 -3204338.872 21706959.936 10 0 59934 51300.00000 0 11872228.055 -701371.282 22546333.623 10 0 59934 52200.00000 0 10928606.471 1946685.583 22946968.503 10 0 59934 53100.00000 0 10172545.336 4676899.170 22901083.984 10 0 59934 54000.00000 0 9621912.283 7421997.514 22409599.591 10 0 59934 54900.00000 0 9282500.478 10112937.418 21482115.056 10 0 59934 55800.00000 0 9147882.045 12681552.919 20136720.429 10 0 59934 56700.00000 0 9199793.793 15063173.975 18399640.032 10 0 59934 57600.00000 0 9409038.131 17199106.575 16304717.321 10 0 59934 58500.00000 0 9736860.239 19038871.136 13892750.855 10 0 59934 59400.00000 0 10136742.393 20542106.353 11210694.548 10 0 59934 60300.00000 0 10556538.695 21680059.673 8310738.053 10 0 59934 61200.00000 0 10940859.063 22436602.937 5249285.644 10 0 59934 62100.00000 0 11233600.851 22808731.850 2085853.964 10 0 59934 63000.00000 0 11380520.293 22806529.683 -1118089.392 10 0 59934 63900.00000 0 11331734.445 22452598.155 -4300323.225 10 0 59934 64800.00000 0 11044047.425 21780980.927 -7399082.309 10 0 59934 65700.00000 0 10483002.343 20835626.319 -10354255.363 10 0 59934 66600.00000 0 9624572.174 19668455.067 -13108547.993 10 0 59934 67500.00000 0 8456418.133 18337115.227 -15608588.217 10 0 59934 68400.00000 0 6978662.434 16902519.027 -17805953.600 10 0 59934 69300.00000 0 5204142.719 15426265.188 -19658100.742 10 0 59934 70200.00000 0 3158137.056 13968054.517 -21129180.061 10 0 59934 71100.00000 0 877570.258 12583206.370 -22190721.174 10 0 59934 72000.00000 0 -1590266.242 11320379.071 -22822176.577 10 0 59934 72900.00000 0 -4189428.888 10219588.508 -23011314.090 10 0 59934 73800.00000 0 -6857401.045 9310606.641 -22754451.176 10 0 59934 74700.00000 0 -9527451.743 8611805.848 -22056526.936 10 0 59934 75600.00000 0 -12131177.912 8129496.578 -20931010.432 10 0 59934 76500.00000 0 -14601126.215 7857785.422 -19399646.696 10 0 59934 77400.00000 0 -16873387.005 7778959.322 -17492044.607 10 0 59934 78300.00000 0 -18890053.860 7864379.777 -15245113.664 10 0 59934 79200.00000 0 -20601447.260 8075849.758 -12702359.328 10 0 59934 80100.00000 0 -21968010.229 8367396.211 -9913049.517 10 0 59934 81000.00000 0 -22961797.059 8687393.449 -6931267.339 10 0 59934 81900.00000 0 -23567492.762 8980938.127 -3814867.569 10 0 59934 82800.00000 0 -23782920.225 9192375.551 -624356.702 10 0 59934 83700.00000 0 -23619013.385 9267870.251 2578281.867 10 0 59934 84600.00000 0 -23099257.146 9157911.458 5730794.587 10 0 59934 85500.00000 0 -22258617.220 8819646.532 8771872.398 10 0 59935 0.00000 0 -21142004.899 8218942.397 11642348.806 10 0 59935 900.00000 0 -19802340.701 7332085.914 14286358.847 10 0 59935 1800.00000 0 -18298300.198 6147050.582 16652431.698 10 0 59935 2700.00000 0 -16691835.224 4664273.255 18694500.190 10 0 59935 3600.00000 0 -15045576.601 2896907.187 20372803.087 10 0 59935 4500.00000 0 -13420227.518 870538.872 21654663.733 10 0 59935 5400.00000 0 -11872057.541 -1377620.863 22515129.425 10 0 59935 6300.00000 0 -10450602.693 -3800038.901 22937459.036 10 0 59935 7200.00000 0 -9196668.262 -6340601.474 22913449.364 10 0 59935 8100.00000 0 -8140717.893 -8936723.445 22443594.009 10 0 59935 9000.00000 0 -7301716.130 -11521737.765 21537071.789 10 0 59935 9900.00000 0 -6686472.323 -14027465.714 20211565.061 10 0 59935 10800.00000 0 -6289512.501 -16386861.049 18492911.630 10 0 59935 11700.00000 0 -6093483.487 -18536617.947 16414597.115 10 0 59935 12600.00000 0 -6070071.019 -20419634.065 14017097.892 10 0 59935 13500.00000 0 -6181391.889 -21987226.168 11347087.596 10 0 59935 14400.00000 0 -6381800.013 -23201006.148 8456522.934 10 0 59935 15300.00000 0 -6620028.975 -24034339.485 5401627.063 10 0 59935 16200.00000 0 -6841579.277 -24473325.916 2241790.807 10 0 59935 17100.00000 0 -6991248.359 -24517262.199 -961586.403 10 0 59935 18000.00000 0 -7015695.542 -24178568.689 -4146292.666 10 0 59935 18900.00000 0 -6865932.778 -23482184.100 -7250513.132 10 0 59935 19800.00000 0 -6499635.422 -22464455.083 -10214029.091 10 0 59935 20700.00000 0 -5883175.192 -21171568.408 -12979383.116 10 0 59935 21600.00000 0 -4993289.315 -19657592.449 -15492987.867 10 0 59935 22500.00000 0 -3818315.395 -17982210.728 -17706157.485 10 0 59935 23400.00000 0 -2358939.896 -16208242.757 -19576042.197 10 0 59935 24300.00000 0 -628428.454 -14399055.774 -21066449.045 10 0 59935 25200.00000 0 1347672.208 -12615975.062 -22148533.829 10 0 59935 26100.00000 0 3532349.115 -10915800.188 -22801351.937 10 0 59935 27000.00000 0 5878421.737 -9348529.726 -23012258.347 10 0 59935 27900.00000 0 8330271.882 -7955388.114 -22777149.786 10 0 59935 28800.00000 0 10825934.285 -6767235.780 -22100544.721 10 0 59935 29700.00000 0 13299462.688 -5803427.687 -20995499.689 10 0 59935 30600.00000 0 15683474.756 -5071167.030 -19483363.168 10 0 59935 31500.00000 0 17911771.475 -4565380.458 -17593371.067 10 0 59935 32400.00000 0 19921923.406 -4269119.622 -15362090.676 10 0 59935 33300.00000 0 21657717.072 -4154472.074 -12832722.673 10 0 59935 34200.00000 0 23071360.020 -4183943.331 -10054273.611 10 0 59935 35100.00000 0 24125352.704 -4312252.093 -7080613.852 10 0 59935 36000.00000 0 24793948.786 -4488463.050 -3969438.363 10 0 59935 36900.00000 0 25064142.213 -4658367.303 -781150.079 10 0 59935 37800.00000 0 24936139.111 -4767009.540 2422312.697 10 0 59935 38700.00000 0 24423293.991 -4761254.565 5578681.970 10 0 59935 39600.00000 0 23551512.313 -4592283.772 8626574.839 10 0 59935 40500.00000 0 22358144.047 -4217914.759 11506693.176 10 0 59935 41400.00000 0 20890414.393 -3604644.572 14162984.125 10 0 59935 42300.00000 0 19203457.607 -2729328.628 16543737.950 10 0 59935 43200.00000 0 17358036.622 -1580422.731 18602601.239 10 0 59935 44100.00000 0 15418044.490 -158734.056 20299485.150 10 0 59935 45000.00000 0 13447892.869 1522352.109 21601350.552 10 0 59935 45900.00000 0 11509897.408 3437180.978 22482854.586 10 0 59935 46800.00000 0 9661769.780 5548660.609 22926845.972 10 0 59935 47700.00000 0 7954321.574 7809584.209 22924699.424 10 0 59935 48600.00000 0 6429475.958 10164387.914 22476482.778 10 0 59935 49500.00000 0 5118669.956 12551271.300 21590953.734 10 0 59935 50400.00000 0 4041713.572 14904592.331 20285386.375 10 0 59935 51300.00000 0 3206152.565 17157437.052 18585231.029 10 0 59935 52200.00000 0 2607160.369 19244256.852 16523614.169 10 0 59935 53100.00000 0 2227962.327 21103463.095 14140688.335 10 0 59935 54000.00000 0 2040772.799 22679870.812 11482844.910 10 0 59935 54900.00000 0 2008204.122 23926889.362 8601805.390 10 0 59935 55800.00000 0 2085086.427 24808368.591 5553609.288 10 0 59935 56700.00000 0 2220620.006 25300023.631 2397518.840 10 0 59935 57600.00000 0 2360767.956 25390379.233 -805137.616 10 0 59935 58500.00000 0 2450786.838 25081194.835 -3992160.517 10 0 59935 59400.00000 0 2437787.442 24387353.501 -7101688.442 10 0 59935 60300.00000 0 2273216.741 23336220.408 -10073398.223 10 0 59935 61200.00000 0 1915155.783 21966498.780 -12849672.243 10 0 59935 62100.00000 0 1330336.233 20326632.085 -15376710.448 10 0 59935 63000.00000 0 495790.423 18472820.026 -17605565.955 10 0 59935 63900.00000 0 -599934.639 16466731.661 -19493084.791 10 0 59935 64800.00000 0 -1956050.564 14373011.182 -21002732.520 10 0 59935 65700.00000 0 -3559319.019 12256679.974 -22105292.782 10 0 59935 66600.00000 0 -5384370.660 10180542.588 -22779425.223 10 0 59935 67500.00000 0 -7394539.139 8202703.570 -23012073.033 10 0 59935 68400.00000 0 -9543176.598 6374297.270 -22798712.881 10 0 59935 69300.00000 0 -11775397.205 4737523.842 -22143442.860 10 0 59935 70200.00000 0 -14030177.729 3324071.853 -21058906.760 10 0 59935 71100.00000 0 -16242729.372 2153992.026 -19566055.798 10 0 59935 72000.00000 0 -18347043.618 1235068.182 -17693751.711 10 0 59935 72900.00000 0 -20278507.424 562710.907 -15478217.950 10 0 59935 73800.00000 0 -21976479.857 120377.908 -12962348.405 10 0 59935 74700.00000 0 -23386723.193 -119496.724 -10194885.978 10 0 59935 75600.00000 0 -24463587.236 -194103.537 -7229485.801 10 0 59935 76500.00000 0 -25171855.272 -148447.904 -4123680.412 10 0 59935 77400.00000 0 -25488173.788 -33205.765 -937766.484 10 0 59935 78300.00000 0 -25402005.266 97664.312 2266365.524 10 0 59935 79200.00000 0 -24916063.118 189451.353 5426435.958 10 0 59935 80100.00000 0 -24046209.578 189256.754 8480990.866 10 0 59935 81000.00000 0 -22820820.000 48484.074 11370603.001 10 0 59935 81900.00000 0 -21279639.610 -274852.714 14039034.816 10 0 59935 82800.00000 0 -19472180.294 -814101.574 16434339.949 10 0 59935 83700.00000 0 -17455724.530 -1592312.582 18509881.101 10 0 59935 84600.00000 0 -15293020.151 -2621017.617 20225243.913 10 0 59935 85500.00000 0 -13049762.752 -3899502.548 21547028.552 10 0 59936 0.00000 0 -10791971.540 -5414603.915 22449503.360 10 0 59936 900.00000 0 -8583367.360 -7141040.857 22915108.122 10 0 59936 1800.00000 0 -6482865.693 -9042267.359 22934796.059 10 0 59936 2700.00000 0 -4542285.206 -11071812.774 22508209.599 10 0 59936 3600.00000 0 -2804370.296 -13175053.147 21643685.358 10 0 59936 4500.00000 0 -1301208.447 -15291340.448 20358088.879 10 0 59936 5400.00000 0 -53107.863 -17356400.745 18676482.450 10 0 59936 6300.00000 0 932018.874 -19304901.136 16631632.550 10 0 59936 7200.00000 0 1658740.701 -21073077.933 14263366.727 10 0 59936 8100.00000 0 2143661.583 -22601316.042 11617792.671 10 0 59936 9000.00000 0 2414462.186 -23836571.475 8746394.938 10 0 59936 9900.00000 0 2508471.783 -24734535.417 5705027.406 10 0 59936 10800.00000 0 2470832.396 -25261449.290 2552821.523 10 0 59936 11700.00000 0 2352334.231 -25395494.960 -648967.888 10 0 59936 12600.00000 0 2207015.235 -25127702.216 -3838156.166 10 0 59936 13500.00000 0 2089627.376 -24462336.063 -6952838.041 10 0 59936 14400.00000 0 2053077.589 -23416748.319 -9932588.732 10 0 59936 15300.00000 0 2145952.092 -22020700.486 -12719633.346 10 0 59936 16200.00000 0 2410228.923 -20315186.982 -15259962.056 10 0 59936 17100.00000 0 2879275.340 -18350808.491 -17504369.853 10 0 59936 18000.00000 0 3576214.437 -16185763.744 -19409401.324 10 0 59936 18900.00000 0 4512729.719 -13883543.553 -20938183.092 10 0 59936 19800.00000 0 5688358.012 -11510422.790 -22061128.854 10 0 59936 20700.00000 0 7090300.617 -9132854.113 -22756504.369 10 0 59936 21600.00000 0 8693761.275 -6814870.764 -23010842.465 10 0 59936 22500.00000 0 10462797.722 -4615605.123 -22819200.774 10 0 59936 23400.00000 0 12351652.421 -2587024.819 -22185257.604 10 0 59936 24300.00000 0 14306508.400 -771979.002 -21121244.194 10 0 59936 25200.00000 0 16267598.493 797365.291 -19647714.293 10 0 59936 26100.00000 0 18171581.516 2100632.724 -17793154.871 10 0 59936 27000.00000 0 19954087.652 3129849.876 -15593444.519 10 0 59936 27900.00000 0 21552327.939 3889531.347 -13091168.908 10 0 59936 28800.00000 0 22907659.503 4396238.504 -10334805.399 10 0 59936 29700.00000 0 23967999.651 4677629.709 -7377791.590 10 0 59936 30600.00000 0 24689987.582 4771042.102 -4277494.897 10 0 59936 31500.00000 0 25040802.576 4721664.762 -1094102.731 10 0 59936 32400.00000 0 24999561.546 4580380.574 2110545.497 10 0 59936 33300.00000 0 24558236.172 4401368.286 5274161.764 10 0 59936 34200.00000 0 23722049.919 4239566.772 8335224.335 10 0 59936 35100.00000 0 22509337.105 4148109.541 11234179.986 10 0 59936 36000.00000 0 20950868.885 4175839.138 13914609.436 10 0 59936 36900.00000 0 19088673.653 4365007.772 16324332.414 10 0 59936 37800.00000 0 16974400.750 4749262.762 18416430.194 10 0 59936 38700.00000 0 14667295.712 5352003.346 20150165.091 10 0 59936 39600.00000 0 12231871.743 6185179.580 21491778.507 10 0 59936 40500.00000 0 9735374.805 7248585.301 22415151.766 10 0 59936 41400.00000 0 7245148.295 8529676.184 22902316.759 10 0 59936 42300.00000 0 4826007.460 10003921.521 22943806.460 10 0 59936 43200.00000 0 2537732.998 11635675.872 22538838.578 10 0 59936 44100.00000 0 432788.121 13379534.639 21695328.928 10 0 59936 45000.00000 0 -1445646.084 15182117.134 20429734.378 10 0 59936 45900.00000 0 -3065235.839 16984202.625 18766728.611 10 0 59936 46800.00000 0 -4405596.095 18723129.913 16738717.119 10 0 59936 47700.00000 0 -5458883.441 20335359.707 14385201.078 10 0 59936 48600.00000 0 -6229857.271 21759092.188 11752002.752 10 0 59936 49500.00000 0 -6735408.488 22936829.750 8890367.708 10 0 59936 50400.00000 0 -7003577.346 23817777.131 5855961.862 10 0 59936 51300.00000 0 -7072103.714 24359978.056 2707783.295 10 0 59936 52200.00000 0 -6986572.666 24532098.685 -492989.455 10 0 59936 53100.00000 0 -6798235.253 24314783.084 -3684189.560 10 0 59936 54000.00000 0 -6561597.879 23701524.133 -6803870.920 10 0 59936 54900.00000 0 -6331883.179 22699013.738 -9791510.169 10 0 59936 55800.00000 0 -6162470.388 21326958.157 -12589178.114 10 0 59936 56700.00000 0 -6102423.721 19617366.660 -15142658.005 10 0 59936 57600.00000 0 -6194213.162 17613343.665 -17402489.391 10 0 59936 58500.00000 0 -6471723.695 15367435.027 -19324917.883 10 0 59936 59400.00000 0 -6958636.600 12939597.410 -20872733.399 10 0 59936 60300.00000 0 -7667250.749 10394874.911 -22015981.679 10 0 59936 61200.00000 0 -8597793.367 7800878.958 -22732536.291 10 0 59936 62100.00000 0 -9738249.362 5225175.175 -23008521.088 10 0 59936 63000.00000 0 -11064716.939 2732684.411 -22838575.669 10 0 59936 63900.00000 0 -12542275.392 383204.488 -22225959.144 10 0 59936 64800.00000 0 -14126329.950 -1770846.019 -21182490.311 10 0 59936 65700.00000 0 -15764378.786 -3686369.715 -19728325.067 10 0 59936 66600.00000 0 -17398129.762 -5331138.532 -17891574.725 10 0 59936 67500.00000 0 -18965879.798 -6684884.802 -15707771.673 10 0 59936 68400.00000 0 -20405058.550 -7739890.583 -13219191.585 10 0 59936 69300.00000 0 -21654830.792 -8501051.191 -10474044.185 10 0 59936 70200.00000 0 -22658648.955 -8985410.658 -7525547.149 10 0 59936 71100.00000 0 -23366648.820 -9221188.897 -4430900.194 10 0 59936 72000.00000 0 -23737787.350 -9246341.577 -1250178.720 10 0 59936 72900.00000 0 -23741632.050 -9106713.624 1954831.778 10 0 59936 73800.00000 0 -23359725.500 -8853864.548 5121837.872 10 0 59936 74700.00000 0 -22586466.347 -8542657.902 8189253.057 10 0 59936 75600.00000 0 -21429468.325 -8228717.487 11097401.167 10 0 59936 76500.00000 0 -19909380.823 -7965858.708 13789684.152 10 0 59936 77400.00000 0 -18059177.393 -7803604.789 16213690.666 10 0 59936 78300.00000 0 -15922941.028 -7784894.000 18322223.171 10 0 59936 79200.00000 0 -13554196.388 -7944076.000 20074222.982 10 0 59936 80100.00000 0 -11013858.352 -8305283.120 21435574.686 10 0 59936 81000.00000 0 -8367882.378 -8881246.408 22379774.082 10 0 59936 81900.00000 0 -5684714.619 -9672607.407 22888446.473 10 0 59936 82800.00000 0 -3032648.184 -10667755.481 22951705.218 10 0 59936 83700.00000 0 -477195.648 -11843198.254 22568343.667 10 0 59936 84600.00000 0 1921412.950 -13164450.132 21745856.848 10 0 59936 85500.00000 0 4110502.634 -14587401.849 20500292.663 99